IRIDIUM 33 DEB

Satellite information

Favourite Embed

Satellite Type and Status

DEBRISIN ORBIT

Key statistics

Satellite IRIDIUM 33 DEB at a glance.

Uptime

10219

Days in orbit

Revolutions

≈ 14.5

Per day

Orbit

LEO

Low Earth Orbit

Inclination

86.4

Latest

Satellite identification and parameters

Extended collection of information and parameters for IRIDIUM 33 DEB.

Object identification

Identified? True

Debris? True

Object name: IRIDIUM 33 DEB

International designator: 1997-051MH

Object number (NORAD): 34833

Object ID (CCSDS): 34833

Country: UNITED STATES OF AMERICA (US)

Current information (Y/N): Y

RCS size: SMALL

Orbital parameters

Period: 99.215 minutes

Inclination: 86.3887 deg

SMA: 7099.26 km

Apoapsis: 736.673 km

Periapsis: 705.576 km

RAAN: 93.3879 deg

Eccentricy: 0.00219015

Argument of periapsis: 68.9667 deg

Mean anomaly: 345.8099 deg

Mean motion: 14.5138675 rev/day

Mean motion (dot): 0.00003794 rev/day2

B* drag term: 0.0009439817 1/REarth

Two-line elements (TLE)

Creation date: Sept. 5, 2025, 7:38 p.m.

Reference frame: TEME

Reference center: EARTH

Epoch: Sept. 5, 2025, 7:56 a.m. UTC

TLE line 0: 0 IRIDIUM 33 DEB

TLE line 1: 1 34833U 97051MH 25248.33120655 .00003794 00000-0 94398-3 0 9998

TLE line 2: 2 34833 86.3887 93.3879 0021901 68.9667 345.8099 14.51386750862876

Live tracking on map

Real-time ground track for satellite IRIDIUM 33 DEB.

In-orbit conjunctions

A list of the most updated potential collisions computed for object IRIDIUM 33 DEB.

Target Orbit TCA Probability of collision Miss distance Type
AEROCUBE 2 SSO 2025-02-13 08:27:50 0.0002712885 126.0 (m) PAYLOAD
NOAA 16 DEB SSO 2024-09-27 04:47:24 0.0001369952 670.0 (m) DEBRIS

Associated space launch

Iridium provides global mobile telecommunications services using a constellation of 66 low earth orbit satellites in a 86.4° inclined orbit. Although 77 satellites were originally envisioned for the system and spawned the name based on the 77th element in the periodic table, the system has been scaled back. Motorola's Satellite Communications Group designed and manufactured the Iridium satellites with Lockheed Martin providing the LM-700A spacecraft buses.

IRIDIUM 33 DEB was lifted into orbit during the mission ‘Proton-K/17S40 | Iridium 27 to 33’, on board a Proton-K/17S40 space rocket.

The launch took place on Sept. 14, 1997, 1:36 a.m. from 81/23 (81L).

For more information about the launch, click the button.

Launch to space Proton-K/17S40 | Iridium 27 to 33
Proton-K/17S40 | Iridium 27 to 33

Agency: N/A

Status: Launch Successful

Launch date: Sept. 14, 1997, 1:36 a.m. UTC

Rocket: Proton-K/17S40

Launch pad: 81/23 (81L)

Location: Baikonur Cosmodrome, Republic of Kazakhstan

...

Latest news about this satellite

There are no fresh news available about this satellite. Check back as we update our databases every day.


Newsletter sign-up

Weekly statistics, charts and insights to help you stay on top of the space industry.